When you browse on this site, cookies collect data to enhance your experience and personalize the content and advertising you see.
Visit our Privacy Policy to learn more. By continuing to use the site, you agree to this use of cookies and data.

Hourly Weather Uige

Today, 5 August, Wednesday

Time Temperature Precipitation Wind Pressure Humidity
00:00 +18°C° 0 mm 1 mps 693 mmHg 91%
01:00 +18°C° 0 mm 1 mps 693 mmHg 96%
02:00 +16°C° 0 mm 1 mps 693 mmHg 96%
03:00 +16°C° 0 mm 1 mps 692 mmHg 96%
04:00 +16°C° 0 mm 1 mps 692 mmHg 96%
05:00 +18°C° 0 mm 1 mps 693 mmHg 94%
06:00 +18°C° 0 mm 1 mps 693 mmHg 92%
07:00 +19°C° 0 mm 1 mps 694 mmHg 90%
08:00 +21°C° 0 mm 1 mps 694 mmHg 80%
09:00 +23°C° 0 mm 1 mps 694 mmHg 70%
10:00 +25°C° 0 mm 2 mps 695 mmHg 59%
11:00 +28°C° 0 mm 2 mps 695 mmHg 49%
12:00 +31°C° 0 mm 2 mps 694 mmHg 38%
13:00 +35°C° 0 mm 2 mps 694 mmHg 28%
14:00 +34°C° 0 mm 2 mps 693 mmHg 27%
15:00 +34°C° 0 mm 2 mps 692 mmHg 27%
16:00 +34°C° 0 mm 2 mps 692 mmHg 26%
17:00 +30°C° 0 mm 2 mps 692 mmHg 32%
18:00 +28°C° 0 mm 2 mps 692 mmHg 38%
19:00 +25°C° 0 mm 1 mps 692 mmHg 44%
20:00 +23°C° 0 mm 1 mps 692 mmHg 53%
21:00 +22°C° 0 mm 1 mps 692 mmHg 62%
22:00 +20°C° 0 mm 1 mps 693 mmHg 71%
23:00 +19°C° 0 mm 1 mps 693 mmHg 79%

Tomorrow, 6 August, Thursday

Time Temperature Precipitation Wind Pressure Humidity
00:00 +18°C° 0 mm 1 mps 692 mmHg 86%
01:00 +16°C° 0 mm 1 mps 692 mmHg 94%
02:00 +18°C° 0 mm 1 mps 692 mmHg 93%
03:00 +18°C° 0 mm 1 mps 692 mmHg 92%
04:00 +18°C° 0 mm 1 mps 692 mmHg 91%
05:00 +19°C° 0 mm 1 mps 692 mmHg 89%
06:00 +19°C° 0 mm 1 mps 692 mmHg 87%
07:00 +19°C° 0 mm 1 mps 693 mmHg 84%
08:00 +22°C° 0 mm 1 mps 693 mmHg 71%
09:00 +26°C° 0 mm 1 mps 694 mmHg 57%
10:00 +29°C° 0 mm 1 mps 694 mmHg 44%
11:00 +31°C° 0 mm 2 mps 694 mmHg 37%
12:00 +34°C° 0 mm 2 mps 694 mmHg 31%
13:00 +36°C° 0 mm 2 mps 693 mmHg 25%
14:00 +36°C° 0 mm 2 mps 692 mmHg 24%
15:00 +36°C° 0 mm 2 mps 692 mmHg 24%
16:00 +36°C° 0 mm 3 mps 691 mmHg 24%
17:00 +32°C° 0 mm 2 mps 691 mmHg 29%
18:00 +29°C° 0 mm 2 mps 691 mmHg 34%
19:00 +26°C° 0 mm 2 mps 691 mmHg 39%
20:00 +24°C° 0 mm 2 mps 692 mmHg 49%
21:00 +22°C° 0 mm 1 mps 692 mmHg 59%
22:00 +20°C° 0 mm 1 mps 692 mmHg 69%
23:00 +19°C° 0 mm 1 mps 692 mmHg 77%

Day after tomorrow, 7 August, Friday

Time Temperature Precipitation Wind Pressure Humidity
00:00 +18°C° 0 mm 1 mps 692 mmHg 85%
01:00 +16°C° 0 mm 1 mps 692 mmHg 93%
02:00 +16°C° 0 mm 1 mps 692 mmHg 93%
03:00 +16°C° 0 mm 1 mps 692 mmHg 92%
04:00 +18°C° 0 mm 1 mps 692 mmHg 91%
05:00 +18°C° 0 mm 1 mps 692 mmHg 88%
06:00 +18°C° 0 mm 1 mps 693 mmHg 86%
07:00 +19°C° 0 mm 1 mps 693 mmHg 84%
08:00 +21°C° 0 mm 1 mps 694 mmHg 71%
09:00 +24°C° 0 mm 1 mps 695 mmHg 58%
10:00 +27°C° 0 mm 2 mps 695 mmHg 45%
11:00 +29°C° 0 mm 2 mps 695 mmHg 38%
12:00 +31°C° 0 mm 2 mps 694 mmHg 32%
13:00 +35°C° 0 mm 2 mps 694 mmHg 26%
14:00 +35°C° 0 mm 2 mps 693 mmHg 25%
15:00 +35°C° 0 mm 3 mps 692 mmHg 25%
16:00 +35°C° 0 mm 3 mps 692 mmHg 24%
17:00 +31°C° 0 mm 2 mps 692 mmHg 30%
18:00 +28°C° 0 mm 2 mps 692 mmHg 36%
19:00 +25°C° 0 mm 2 mps 692 mmHg 42%
20:00 +23°C° 0 mm 2 mps 692 mmHg 52%
21:00 +21°C° 0 mm 1 mps 692 mmHg 61%
22:00 +19°C° 0 mm 1 mps 693 mmHg 70%
23:00 +18°C° 0 mm 1 mps 692 mmHg 79%

8 August, Saturday

Time Temperature Precipitation Wind Pressure Humidity
00:00 +16°C° 0 mm 1 mps 692 mmHg 88%
01:00 +14°C° 0 mm 1 mps 692 mmHg 96%
02:00 +15°C° 0 mm 1 mps 692 mmHg 94%
03:00 +15°C° 0 mm 1 mps 692 mmHg 92%
04:00 +16°C° 0 mm 1 mps 692 mmHg 91%
05:00 +16°C° 0 mm 1 mps 693 mmHg 88%
06:00 +16°C° 0 mm 1 mps 693 mmHg 86%
07:00 +18°C° 0 mm 1 mps 694 mmHg 84%
08:00 +21°C° 0 mm 1 mps 694 mmHg 71%
09:00 +24°C° 0 mm 1 mps 695 mmHg 58%
10:00 +27°C° 0 mm 1 mps 695 mmHg 44%
11:00 +29°C° 0 mm 1 mps 695 mmHg 38%
12:00 +32°C° 0 mm 1 mps 694 mmHg 31%
13:00 +35°C° 0 mm 2 mps 693 mmHg 24%
14:00 +35°C° 0 mm 2 mps 693 mmHg 24%
15:00 +35°C° 0 mm 2 mps 692 mmHg 24%
16:00 +34°C° 0 mm 3 mps 691 mmHg 23%
17:00 +31°C° 0 mm 3 mps 692 mmHg 29%
18:00 +28°C° 0 mm 2 mps 692 mmHg 35%
19:00 +25°C° 0 mm 2 mps 692 mmHg 42%
20:00 +23°C° 0 mm 2 mps 692 mmHg 53%
21:00 +20°C° 0 mm 1 mps 693 mmHg 64%
22:00 +18°C° 0 mm 1 mps 693 mmHg 75%
23:00 +16°C° 0 mm 1 mps 693 mmHg 82%

9 August, Sunday

Time Temperature Precipitation Wind Pressure Humidity
00:00 +15°C° 0 mm 1 mps 692 mmHg 90%
01:00 +14°C° 0 mm 1 mps 692 mmHg 97%
02:00 +14°C° 0 mm 1 mps 692 mmHg 96%
03:00 +15°C° 0 mm 1 mps 692 mmHg 94%
04:00 +15°C° 0 mm 1 mps 692 mmHg 92%
05:00 +15°C° 0 mm 1 mps 692 mmHg 90%
06:00 +15°C° 0 mm 1 mps 692 mmHg 88%
07:00 +16°C° 0 mm 1 mps 693 mmHg 86%
08:00 +19°C° 0 mm 1 mps 693 mmHg 74%
09:00 +22°C° 0 mm 1 mps 694 mmHg 61%
10:00 +25°C° 0 mm 1 mps 694 mmHg 49%
11:00 +27°C° 0 mm 1 mps 694 mmHg 42%
12:00 +30°C° 0 mm 2 mps 693 mmHg 34%
13:00 +34°C° 0 mm 2 mps 693 mmHg 27%
14:00 +32°C° 0 mm 2 mps 692 mmHg 27%
15:00 +32°C° 0 mm 2 mps 691 mmHg 27%
16:00 +33°C° 0 mm 3 mps 691 mmHg 26%
17:00 +30°C° 0 mm 2 mps 691 mmHg 31%
18:00 +27°C° 0 mm 2 mps 691 mmHg 36%
19:00 +24°C° 0 mm 2 mps 691 mmHg 41%
20:00 +23°C° 0 mm 1 mps 691 mmHg 49%
21:00 +21°C° 0 mm 1 mps 692 mmHg 56%
22:00 +19°C° 0 mm 1 mps 692 mmHg 64%
23:00 +18°C° 0 mm 1 mps 692 mmHg 73%

10 August, Monday

Time Temperature Precipitation Wind Pressure Humidity
00:00 +16°C° 0 mm 1 mps 692 mmHg 81%
01:00 +15°C° 0 mm 1 mps 691 mmHg 90%
02:00 +14°C° 0 mm 1 mps 691 mmHg 92%
03:00 +14°C° 0 mm 1 mps 691 mmHg 95%
04:00 +12°C° 0 mm 0 mps 691 mmHg 98%
05:00 +13°C° 0 mm 0 mps 691 mmHg 95%
06:00 +14°C° 0 mm 0 mps 691 mmHg 92%
07:00 +15°C° 0 mm 0 mps 692 mmHg 89%
08:00 +19°C° 0 mm 1 mps 692 mmHg 75%
09:00 +22°C° 0 mm 1 mps 693 mmHg 62%
10:00 +25°C° 0 mm 1 mps 693 mmHg 48%
11:00 +28°C° 0 mm 1 mps 693 mmHg 41%
12:00 +30°C° 0 mm 2 mps 692 mmHg 33%
13:00 +34°C° 0 mm 2 mps 692 mmHg 26%
14:00 +34°C° 0 mm 2 mps 691 mmHg 27%
15:00 +32°C° 0 mm 2 mps 691 mmHg 27%
16:00 +33°C° 0 mm 3 mps 690 mmHg 27%
17:00 +30°C° 0 mm 2 mps 690 mmHg 33%
18:00 +27°C° 0 mm 2 mps 690 mmHg 39%
19:00 +25°C° 0 mm 2 mps 691 mmHg 45%
20:00 +23°C° 0 mm 1 mps 691 mmHg 53%
21:00 +21°C° 0 mm 1 mps 691 mmHg 60%
22:00 +19°C° 0 mm 1 mps 691 mmHg 68%
23:00 +18°C° 0 mm 1 mps 691 mmHg 76%
Show more